Location: Archemont
(49.1579°N, 1.7598°E)
Time: 10:13:21
(UTC+00:00)

deb Explorer IX - Pass Details

Date: 16 April 2024
Orbit: 513 x 891 km, 38.7° (Epoch: 23 May)

Event Time Altitude Azimuth Distance (km) Brightness Sun altitude
Rises 12:38:41 0° 222° (SW) 3,494 ? 50.1°
Reaches altitude 10° 12:41:48 10° 208° (SSW) 2,572 ? 49.9°
Maximum altitude 12:46:24 22° 160° (SSE) 1,864 ? 49.7°
Drops below altitude 10° 12:50:56 10° 112° (ESE) 2,542 ? 49.4°
Sets 12:54:00 0° 98° (E) 3,443 ? 49.2°
